{"data":{"norad_id":37792,"epoch":"2026-05-24T18:23:46.425120Z","epoch_age_seconds":91631,"freshness":"FRESH","line1":"1 37792U 11044E   26144.76650955  .00000801  00000+0  10829-3 0  9999","line2":"2 37792  98.2450  77.1453 0053659  78.4225 282.3004 14.81015560795327","mean_motion":14.8101556,"eccentricity":0.0053659,"inclination_deg":98.245,"raan_deg":77.1453,"arg_perigee_deg":78.4225,"mean_anomaly_deg":282.3004,"bstar":0.00010829,"rev_number":79532,"period_min":97.230578725317,"perigee_km":588.53619286696,"apogee_km":663.70448175954,"semimajor_km":7004.2573373133,"source":"CELESTRAK","updated_at":"2026-05-25T13:38:24.894616Z"}}